Flag for Micronesia Weather past 2 weeks in Palikir, Pohnpei, Micronesia

Now
77 °F

Partly cloudy.


Feels Like: 78 °F
Forecast: 76 / 87 °F
Wind: 5 mph from Southeast

Location: Pohnpei

Current Time: Sep 4, 2015 at 2:15:34 AM

Latest Report: Sep 4, 2015 at 12:53 AM


Visibility: 15 mi

Pressure: 29.93 "Hg

Humidity: 95%

Dew point: 75 °F

Location of PalikirLocation

Historic Weather in Palikir — Graph

°F

Palikir temperature yesterday

Maximum temperature yesterday: 88 °F (at 2:55 PM)
Minimum temperature yesterday: 77 °F (at 3:52 AM)
Average temperature yesterday: 82 °F

Past Weeks' High & Low Weather Summary

 TemperatureHumidityPressure
High92 °F (Aug 21, 2:55 PM)100% (Sep 2, 6:01 AM)29.97 "Hg (Sep 2, 6:01 AM)
Low74 °F (Aug 22, 1:53 AM)62% (Aug 21, 3:54 PM)29.75 "Hg (Aug 27, 3:50 PM)
Average81 °F87%29.86 "Hg
* Reported Aug 20 12:53 AM — Sep 4 12:53 AM, Palikir, Weather by CustomWeather, © 2015

Note: Actual official high and low records may vary slightly from our data, if they occured in-between our weather recording intervals... More about our weather records

Advertising

Palikir weather history for previous 24 hours

 ConditionsComfort  
Time TempWeatherWind HumidityBarometerVisibility
12:53 AM
Fri, Sep 4
77 °FPartly cloudy.5 mph95%29.93 "Hg15 mi
11:52 PM
Thu, Sep 3
77 °FOvercast.2 mph95%29.95 "Hg15 mi
10:51 PM78 °FOvercast.2 mph94%29.96 "Hg15 mi
9:58 PM78 °FMostly cloudy.2 mph92%29.95 "Hg15 mi
8:53 PM79 °FMostly cloudy.3 mph91%29.93 "Hg15 mi
7:56 PM82 °FMostly cloudy.8 mph84%29.93 "Hg15 mi
6:53 PM83 °FMostly cloudy.6 mph79%29.91 "Hg15 mi
5:56 PM85 °FMore clouds than sun.8 mph73%29.89 "Hg15 mi
4:51 PM85 °FBroken clouds.7 mph74%29.86 "Hg15 mi
2:55 PM88 °FBroken clouds.9 mph71%29.87 "Hg15 mi
1:52 PM87 °FBroken clouds.14 mph70%29.88 "Hg15 mi
12:50 PM85 °FBroken clouds.7 mph84%29.90 "Hg15 mi
11:50 AM86 °FBroken clouds.7 mph77%29.91 "Hg15 mi
10:50 AM85 °FBroken clouds.9 mph75%29.93 "Hg15 mi
9:50 AM86 °FBroken clouds.7 mph70%29.93 "Hg15 mi
8:55 AM83 °FBroken clouds.9 mph90%29.93 "Hg15 mi
7:53 AM82 °FCloudy.5 mph88%29.92 "Hg15 mi
6:54 AM77 °FMostly cloudy.9 mph92%29.90 "Hg15 mi
5:52 AM78 °FMostly cloudy.6 mph95%29.89 "Hg15 mi
4:52 AM78 °FMostly cloudy.6 mph95%29.88 "Hg15 mi
3:52 AM77 °FSprinkles. Mostly cloudy.9 mph95%29.86 "Hg12 mi
2:54 AM79 °FOvercast.6 mph91%29.86 "Hg15 mi
Weather by CustomWeather, © 2015

See weather overviewHow to use our weather pages